Theta_e
334 343 351 354 353 353 355 354 353 352 350 349 350 349 349 349 351 354 353 351 350 350 348 347 345 344 343 342 340 341 342 343 345 351 352 350 349 349 350 350 350 350 352
337 345 349 353 354 354 354 353 353 351 350 348 349 348 348 348 351 351 350 350 347 346 346 346 345 342 341 338 337 336 336 337 337 339 349 350 349 346 346 347 349 348 352
339 344 348 351 353 353 353 352 352 352 350 349 349 349 348 349 349 350 348 348 346 344 343 341 340 339 337 335 334 334 333 332 333 334 336 334 343 346 344 346 347 347 349
339 343 347 348 352 353 352 352 351 352 352 350 349 349 349 349 349 348 348 346 344 342 341 340 339 335 333 331 330 330 329 329 330 333 329 337 345 347 345 343 345 345 345
338 342 346 348 352 352 351 351 351 351 352 352 351 350 349 348 348 345 344 344 343 340 338 336 335 331 329 326 325 324 324 325 329 326 331 335 338 345 346 343 342 343 344
337 341 344 348 352 352 351 351 350 351 351 352 352 350 348 347 344 342 341 342 340 338 335 333 331 328 324 322 320 319 319 322 322 320 327 332 334 341 344 344 343 343 343
328 339 344 347 350 351 351 351 350 350 351 352 352 351 349 345 340 337 336 338 339 335 333 331 328 324 321 319 316 315 317 320 311 318 321 323 331 338 337 340 340 340 340
325 339 343 341 344 347 349 349 349 349 349 350 351 350 349 344 339 336 335 335 335 333 330 329 325 322 320 317 314 314 315 318 311 315 316 317 332 333 333 334 335 337 337
324 336 340 342 342 340 343 344 346 347 347 348 348 348 344 342 340 336 335 334 334 331 329 326 323 321 318 315 312 312 315 317 304 311 314 314 326 326 326 328 330 332 333
322 326 335 338 340 340 341 337 340 342 343 344 343 340 336 336 335 334 331 334 332 329 328 325 322 320 317 313 309 307 311 311 300 307 309 313 323 323 322 324 326 327 328
320 323 325 333 335 337 336 336 333 336 338 338 336 332 330 328 328 326 325 330 330 328 327 324 321 319 314 309 305 306 307 296 298 304 306 317 317 319 320 321 322 324 325
314 320 324 326 332 334 340 337 335 336 337 337 334 332 330 325 324 324 321 325 328 327 326 323 321 317 308 298 296 303 296 295 295 301 307 316 315 317 318 319 321 323 324
313 317 323 326 327 330 333 332 335 338 335 332 332 329 327 324 322 319 316 318 317 318 315 316 312 305 302 299 295 295 295 294 294 298 307 313 317 316 317 320 323 322 321
307 316 320 324 326 327 331 329 334 335 334 333 332 329 328 326 322 314 313 312 312 310 308 306 304 301 298 296 296 295 294 294 294 298 305 313 316 317 320 320 320 322 322
304 307 317 322 325 328 326 326 330 332 332 330 332 331 330 326 322 315 311 311 310 308 306 304 301 297 296 295 295 295 294 294 294 299 300 313 318 318 319 321 322 322 323
302 304 309 321 324 325 327 325 324 325 327 326 325 328 330 326 321 315 310 311 310 308 305 302 298 296 295 294 294 294 293 293 294 296 301 306 316 318 318 321 323 324 323
300 302 305 315 319 322 323 324 323 323 324 324 326 324 324 324 319 313 310 309 310 307 304 299 296 295 294 294 293 293 293 293 294 295 300 304 305 314 319 318 320 323 322
298 299 301 305 317 319 320 320 323 322 321 321 322 322 321 322 318 311 308 307 307 305 301 296 295 293 292 292 290 291 292 293 293 294 295 302 302 302 309 314 318 317 316
297 298 299 300 302 314 316 317 319 320 319 319 320 321 322 320 316 312 307 306 305 301 297 296 292 292 290 290 290 290 290 291 292 294 294 298 299 299 298 306 307 309 311
296 297 298 299 300 306 309 311 313 314 315 316 317 321 321 320 315 310 307 305 303 299 295 293 292 291 290 290 292 290 289 290 290 290 293 295 293 295 295 293 294 299 308
294 295 296 297 298 300 301 305 306 308 311 312 316 319 319 318 315 309 306 305 300 298 296 293 291 291 290 289 288 287 288 289 289 289 291 291 291 291 291 291 292 295 298
293 293 294 295 296 298 300 300 303 302 302 306 310 311 315 315 314 309 304 302 298 295 293 292 291 289 290 289 287 285 283 285 287 289 289 290 288 289 290 291 290 293 295
291 292 293 294 294 295 297 299 299 300 299 298 301 304 308 311 310 309 305 302 299 298 295 293 291 291 289 289 288 288 283 283 283 286 287 288 288 287 288 289 289 291 295
290 291 292 293 293 294 294 294 293 293 293 294 295 296 299 303 304 307 305 303 299 297 295 292 292 291 289 287 287 290 288 287 283 282 285 286 286 287 286 286 287 289 293
289 288 289 290 291 292 292 292 291 291 292 292 293 293 294 297 299 300 301 302 300 298 295 293 292 291 289 289 288 286 286 286 286 283 281 282 284 285 287 286 287 287 291
288 287 288 288 289 290 291 290 290 289 289 289 289 290 291 292 294 296 297 297 297 298 295 294 293 292 292 290 288 287 287 287 285 285 282 281 281 283 285 286 286 287 288
Wind_Speed
5 11 17 18 16 13 13 15 14 13 12 12 12 11 9 9 8 11 12 12 11 12 10 9 10 11 10 10 10 9 9 7 9 10 13 13 12 12 13 11 10 7 11
11 13 16 17 17 14 13 14 14 13 13 12 11 11 10 9 9 10 11 12 10 10 9 9 9 10 9 8 8 8 8 7 7 7 8 10 11 11 12 11 9 9 13
13 13 14 16 16 16 15 13 12 13 14 14 13 11 11 10 10 9 10 12 10 10 8 8 8 8 8 7 7 8 7 5 5 6 5 2 6 12 10 10 9 10 11
12 12 13 15 16 16 16 15 14 13 13 13 13 14 14 12 11 9 10 11 12 8 8 8 9 8 8 6 7 7 7 7 9 9 5 3 8 10 9 10 9 10 11
9 11 11 14 17 16 17 15 13 12 12 12 14 14 13 12 12 11 10 10 10 7 8 7 8 7 7 6 5 5 5 7 9 7 6 6 5 8 8 7 8 8 9
8 10 12 13 14 15 15 17 15 14 13 13 14 15 14 13 11 10 8 9 9 8 7 7 7 6 6 6 4 5 5 6 6 6 6 7 6 7 10 8 8 6 9
8 8 12 15 15 15 15 15 14 14 13 13 13 13 14 15 12 10 7 7 8 7 8 8 7 6 6 6 5 5 5 7 6 6 6 6 5 7 6 7 6 7 9
8 7 10 16 15 15 16 16 15 14 12 9 13 14 16 16 14 12 9 9 9 8 7 8 8 7 6 6 6 6 7 7 6 6 5 5 7 6 4 4 4 5 6
8 8 8 10 13 13 13 13 13 13 13 11 13 14 14 14 13 13 10 10 10 9 9 8 8 8 6 5 5 7 9 8 7 4 5 3 5 3 3 2 3 3 4
6 7 8 8 8 7 7 13 14 13 11 11 11 11 10 9 10 11 9 8 10 9 9 9 9 8 7 5 5 5 7 8 6 5 4 3 4 3 2 3 2 2 2
3 6 7 8 7 7 5 6 8 12 13 11 11 12 10 5 7 9 9 8 9 9 9 9 8 8 7 4 3 4 5 2 5 4 3 5 2 2 2 3 2 2 2
7 6 8 8 9 9 9 7 6 5 5 6 7 8 6 6 5 7 8 11 10 10 11 11 9 8 6 2 1 3 2 3 4 3 2 4 1 1 2 2 3 3 4
9 4 9 9 9 10 8 6 5 6 5 4 8 8 7 5 5 4 4 4 4 7 4 5 6 3 4 2 2 2 3 3 3 2 3 4 3 1 2 4 5 4 3
8 12 9 9 9 9 7 6 7 7 6 6 7 9 7 5 6 4 4 5 5 4 6 5 3 3 3 4 5 3 3 3 3 2 2 3 1 2 5 5 5 5 5
9 9 11 10 10 10 8 5 6 8 7 7 7 8 8 7 6 6 5 5 5 5 5 5 5 4 4 3 3 4 3 3 4 2 1 2 2 4 6 6 6 6 7
10 8 6 11 11 8 9 7 5 5 5 6 4 6 10 8 6 8 6 6 5 5 5 5 6 5 4 4 4 3 3 2 3 4 2 2 5 5 4 7 8 9 6
11 13 7 6 7 8 8 7 5 5 5 4 5 6 7 8 8 9 7 6 6 5 7 5 4 4 4 3 5 4 4 4 3 3 3 2 3 9 9 5 8 9 9
13 14 12 9 5 8 7 6 5 5 4 4 4 5 7 8 10 7 6 5 5 5 5 5 5 4 4 4 3 3 3 3 4 4 4 3 2 3 7 9 8 7 5
12 13 13 12 9 2 2 3 4 6 4 4 4 4 6 7 8 8 5 5 6 5 4 6 2 4 3 3 4 3 3 3 3 3 4 5 5 5 3 4 5 5 2
14 14 14 13 15 8 5 4 4 2 0 2 3 4 6 7 7 6 5 6 5 5 4 3 4 1 3 4 3 3 2 3 3 3 3 3 3 4 4 4 2 0 1
16 16 16 15 14 10 5 4 3 2 2 2 1 4 6 6 7 6 4 6 5 7 7 6 4 5 2 3 4 2 2 2 4 4 4 4 5 4 3 3 2 2 2
14 14 16 15 15 11 7 4 3 3 2 3 4 5 2 4 6 6 6 5 6 5 6 7 5 3 3 6 4 2 2 4 3 4 4 4 6 5 6 6 5 4 3
15 15 15 14 14 13 12 8 5 4 4 5 5 4 5 3 3 5 5 5 5 6 7 8 7 8 5 6 6 6 2 6 2 1 5 5 6 4 4 5 7 7 6
12 12 14 15 16 14 15 11 11 6 5 3 3 4 6 7 6 3 0 3 5 4 5 6 6 6 6 6 2 6 1 4 4 2 2 4 5 7 6 4 5 6 6
8 10 11 13 15 15 16 14 9 10 5 5 7 9 9 7 8 6 4 3 2 3 5 6 5 6 4 5 5 2 2 2 1 3 4 4 2 4 5 6 5 5 5
7 7 10 13 14 14 13 14 14 13 11 10 10 9 8 6 7 9 9 4 3 3 4 5 7 7 9 6 4 5 5 5 5 4 3 4 4 4 5 6 7 7 5
Wind_Direction
192 161 163 160 159 158 138 136 142 142 143 143 139 131 124 119 109 111 107 97 88 90 88 84 85 83 78 66 70 69 68 62 43 76 91 88 75 65 65 68 59 54 69
147 162 162 164 161 156 147 144 147 149 150 150 148 140 136 133 128 124 124 113 103 93 89 82 82 80 71 62 67 67 61 47 37 39 84 102 97 78 68 62 60 63 60
152 162 162 167 165 160 156 154 156 159 161 159 154 148 141 139 143 146 125 113 109 95 91 89 85 83 71 59 56 56 46 38 35 25 331 285 103 92 82 72 63 64 65
150 160 164 167 168 165 163 163 167 169 166 166 167 169 154 145 135 117 117 119 114 110 110 109 106 100 92 72 58 57 31 15 7 357 49 38 100 104 96 83 71 77 68
149 157 165 167 170 168 164 167 166 170 172 176 168 160 152 147 137 128 125 133 124 131 124 125 113 108 97 84 71 62 39 19 5 22 56 66 65 79 97 111 87 77 73
150 157 157 169 174 172 170 169 172 177 180 180 178 174 163 156 146 139 143 148 135 146 138 132 120 116 111 99 84 63 56 34 56 53 59 49 59 80 73 76 99 116 109
154 165 162 169 176 175 176 177 179 183 187 185 182 172 166 155 150 141 151 170 145 162 148 137 126 124 116 103 89 80 54 37 79 79 72 55 55 75 72 62 74 66 73
166 157 170 175 176 178 180 181 182 186 194 198 184 171 168 161 159 148 161 177 181 168 158 140 138 140 120 107 91 77 52 49 68 82 72 57 60 77 87 82 80 88 97
179 153 168 180 186 182 180 182 183 187 191 198 195 180 167 169 165 155 160 177 177 176 166 151 149 140 122 102 74 62 42 82 73 87 76 37 40 87 69 93 99 103 106
190 173 170 174 182 189 193 186 183 185 189 194 187 169 161 163 151 146 151 179 180 182 170 162 157 144 133 116 89 62 34 57 76 82 69 34 50 89 75 72 81 104 108
236 202 171 175 181 186 195 196 196 185 186 193 183 170 164 159 157 148 149 176 186 187 175 170 162 145 123 115 110 63 57 69 87 78 65 45 23 129 126 96 126 148 138
215 212 199 179 183 181 195 193 202 199 198 188 172 175 164 161 161 156 160 176 184 173 173 174 166 145 125 116 36 56 95 92 87 111 79 40 64 137 109 111 125 120 118
215 202 193 192 176 180 192 177 183 200 195 184 178 170 167 162 170 161 160 169 168 160 160 162 151 141 171 201 209 162 130 105 111 97 93 52 354 170 152 149 130 125 137
208 213 203 191 185 184 187 177 179 186 182 183 184 173 178 175 167 167 164 165 161 158 155 149 151 177 206 164 158 134 105 123 126 127 129 105 346 226 162 159 153 151 144
218 207 205 186 190 191 180 172 177 186 185 185 174 179 186 184 171 154 172 162 163 160 161 167 170 178 179 152 140 143 140 130 117 128 130 73 358 209 173 160 156 154 162
348 292 206 194 196 175 186 177 176 171 181 187 182 181 192 192 172 165 171 175 171 177 170 167 171 173 176 161 158 154 151 136 139 140 151 40 36 26 186 177 166 164 128
359 1 327 209 180 178 178 175 163 170 165 182 195 193 183 182 172 165 171 178 180 177 163 156 167 154 157 166 170 166 159 163 160 148 156 156 51 49 41 207 197 173 153
11 7 354 359 210 177 174 168 166 169 178 178 186 187 178 175 165 163 168 179 172 163 159 161 162 162 176 175 172 195 175 166 171 177 160 163 143 70 58 57 67 86 143
15 7 6 7 12 298 144 153 170 176 170 189 175 179 172 164 160 163 167 176 161 159 166 166 158 146 166 176 183 181 187 183 192 183 169 147 151 145 134 101 83 58 35
18 19 16 16 18 33 53 52 36 38 98 157 178 176 168 162 156 159 161 168 161 155 159 161 151 161 153 164 155 156 202 208 198 201 190 173 159 154 163 156 135 200 244
23 21 20 25 16 21 8 26 31 28 359 360 191 165 160 170 161 162 175 166 159 174 179 173 139 169 186 155 101 358 320 256 223 209 198 188 185 177 177 182 187 202 247
24 21 21 22 22 24 24 360 41 44 34 2 356 17 82 165 172 162 166 184 168 149 164 171 159 142 175 183 148 109 234 309 270 229 219 210 207 183 183 186 195 212 217
26 22 27 26 26 25 18 24 21 23 28 18 358 357 4 45 168 167 168 162 173 184 191 189 176 169 191 213 222 150 124 225 148 207 227 210 200 217 214 195 193 192 181
29 28 28 27 29 27 25 34 38 41 48 6 9 359 353 2 12 9 200 195 176 183 191 201 197 185 143 194 271 244 250 146 182 245 277 227 211 209 204 218 215 211 185
32 31 26 34 36 28 27 30 33 37 21 5 17 19 1 350 352 348 352 352 251 197 208 198 190 209 191 173 196 170 181 240 135 135 221 256 261 214 207 195 192 214 214
29 38 39 38 33 28 32 31 32 34 25 27 18 14 2 352 0 351 324 308 302 288 227 213 213 208 217 225 204 193 181 177 199 182 175 216 213 242 203 194 199 201 192